Location: Bonny Doon Airfield
(37.0704°N, 122.1252°W)
Time: 13:48:43
(UTC-07:00)

N. Korean satellite - Pass Details

Date: 08 October 2017
Orbit: 459 x 517 km, 97.2° (Epoch: 17 October)

Event Time Altitude Azimuth Distance (km) Brightness Sun altitude
Rises 20:17:43 0° 210° (SSW) 2,577 10.6 -20.1°
Reaches altitude 10° 20:20:53 10° 241° (WSW) 1,686 10.0 -20.7°
Maximum altitude 20:22:28 12° 267° (W) 1,535 10.1 -21.0°
Drops below altitude 10° 20:24:02 10° 293° (WNW) 1,678 10.4 -21.3°
Sets 20:27:11 0° 324° (NW) 2,549 10.9 -22.0°
